Wetbulb
74.25 74.59 75.15 76.04 75.26 74.52 73.44 73.30 73.67 72.87 72.73 74.61 74.56 74.53 73.04 74.02 74.82 74.16 74.16 76.93 76.46 76.36 77.00 76.64 76.95 77.01 76.38 76.32 75.89 75.59 75.07 76.07 75.55 75.58 74.94 74.42 75.00 75.74 75.28 74.67 75.00 74.62 74.50
75.21 73.35 73.12 74.77 73.97 75.72 73.79 72.25 74.18 72.81 74.79 73.42 72.77 74.16 74.14 74.02 74.59 75.48 74.70 76.26 77.39 76.79 77.01 77.42 77.41 77.46 77.13 76.90 76.30 76.10 75.68 75.49 76.05 75.48 75.48 75.26 75.24 75.42 75.59 75.71 75.48 75.23 74.71
75.36 74.84 74.45 74.34 73.51 75.93 77.85 76.79 76.73 76.12 73.05 74.37 74.74 73.67 73.58 73.78 73.59 74.80 75.33 75.35 75.93 77.47 77.19 77.37 77.46 77.38 77.23 77.46 77.52 77.07 76.72 76.62 76.47 76.07 75.72 75.61 75.41 75.48 75.74 75.79 75.54 75.64 75.24
76.00 76.79 74.31 74.86 73.71 76.33 75.86 75.99 76.19 75.23 74.38 73.48 72.95 73.35 72.33 72.74 72.79 74.08 74.97 74.95 75.00 75.06 76.32 77.08 76.77 77.19 77.39 77.70 77.84 77.20 76.72 76.57 76.31 76.41 76.46 76.31 75.96 75.48 75.20 75.83 75.46 74.12 75.09
76.38 75.53 75.23 74.76 77.06 75.99 75.92 75.16 74.26 75.31 74.22 73.91 73.79 74.24 74.19 73.56 74.09 73.63 73.49 73.78 75.16 75.05 75.08 76.64 76.84 76.64 77.61 77.62 77.90 77.74 77.16 76.67 76.24 76.14 76.29 76.29 76.04 75.70 75.00 74.93 75.38 74.95 74.31
76.63 76.36 75.64 75.37 75.64 75.16 75.02 76.13 73.97 75.41 73.87 73.01 72.73 71.82 72.73 73.45 73.84 73.83 73.78 73.75 74.66 75.83 75.35 75.87 75.91 75.82 77.09 77.34 77.09 76.79 76.97 76.91 76.59 76.34 76.12 76.02 75.69 75.28 74.66 74.63 74.55 74.94 74.87
76.12 76.27 74.68 75.40 75.79 74.65 74.15 75.22 73.98 73.87 72.69 73.74 72.13 72.05 73.10 74.86 74.87 74.57 74.61 73.08 74.36 75.19 74.22 76.81 75.49 75.33 75.69 76.67 76.19 76.31 76.51 76.56 76.99 76.52 76.37 75.81 75.36 75.06 74.59 74.13 73.71 74.14 74.26
76.23 76.00 75.61 75.86 76.34 75.11 74.72 75.01 74.67 73.31 73.12 73.24 70.89 69.63 67.49 70.61 72.60 72.90 73.14 73.78 73.98 74.14 73.76 75.05 76.44 75.53 75.41 76.14 75.49 76.44 76.52 76.44 77.03 76.79 76.02 75.53 75.15 74.36 73.82 73.76 73.29 73.07 73.38
76.21 76.14 76.21 74.77 75.72 75.26 72.63 74.01 73.02 73.36 71.42 72.18 73.28 68.43 65.61 65.36 68.86 72.64 72.32 72.66 72.98 73.48 73.53 73.53 74.90 75.82 76.73 75.46 76.14 76.53 76.32 75.93 76.04 75.58 75.17 75.01 74.39 73.89 73.96 73.89 73.55 73.25 73.05
76.17 75.52 75.18 75.53 75.89 75.58 74.35 72.95 75.15 73.09 71.96 70.48 72.53 71.77 71.01 70.64 66.87 66.20 71.68 71.77 71.17 71.45 75.31 75.61 75.33 76.05 75.52 76.18 77.21 76.64 75.37 76.08 74.84 74.07 73.54 73.99 74.28 74.51 74.53 74.13 74.06 73.72 73.05
76.17 75.58 75.35 74.42 74.38 75.42 74.14 73.52 73.94 74.07 73.45 72.02 71.26 70.63 71.26 70.58 70.68 68.35 65.95 67.00 71.17 72.04 72.53 74.15 73.67 74.79 76.55 76.02 75.88 76.27 74.62 74.59 73.09 72.93 72.71 72.54 72.89 73.63 74.22 74.77 75.12 75.02 74.64
75.32 75.89 75.54 74.97 74.99 75.24 73.78 73.93 73.86 73.36 73.32 73.02 71.58 71.28 70.26 69.75 68.57 68.48 67.00 67.58 68.27 69.73 73.04 71.49 72.79 74.83 75.39 74.91 75.36 74.66 74.11 73.25 72.84 72.15 71.76 71.90 72.14 72.61 73.29 73.69 74.57 74.76 75.13
74.19 74.70 75.87 75.48 74.87 75.54 74.44 75.05 74.70 74.44 74.12 73.16 72.61 72.10 72.47 70.95 71.11 70.52 69.27 67.00 67.49 69.42 70.34 71.78 72.75 74.24 74.86 74.55 73.74 74.45 73.97 72.39 72.06 72.02 71.34 71.43 71.86 72.54 73.19 73.97 74.38 74.81 75.01
73.70 76.02 75.47 75.78 75.66 75.16 75.10 75.04 74.44 74.38 74.02 72.95 72.34 71.71 71.14 71.21 71.32 70.53 68.41 67.29 64.64 66.33 68.13 70.45 73.08 74.15 74.25 73.72 73.82 73.27 72.85 72.35 71.48 71.05 70.44 70.53 70.99 71.69 72.05 72.24 73.37 73.25 73.09
74.90 76.11 75.43 75.61 75.73 75.06 74.83 75.12 73.52 73.64 73.53 73.07 72.64 72.77 71.85 71.52 72.11 70.93 69.27 67.04 65.60 62.92 63.74 67.25 70.49 74.24 73.74 73.05 73.11 73.08 72.88 70.80 70.73 69.73 69.54 69.68 70.12 70.64 71.16 71.66 71.41 70.84 70.56
75.88 75.73 75.64 75.24 75.04 75.14 75.55 74.96 74.02 73.79 73.46 73.36 72.63 71.66 71.67 71.39 71.53 69.91 68.34 67.81 67.04 65.30 63.86 68.39 70.91 72.06 72.02 71.25 72.55 71.81 71.67 69.75 69.17 68.28 67.82 68.29 69.33 69.86 70.41 70.72 70.16 69.00 68.80
77.01 75.17 75.90 75.29 74.85 74.77 75.33 74.64 74.14 73.82 72.65 72.54 72.30 72.07 71.83 72.38 70.54 70.20 70.53 70.06 68.57 68.37 66.70 68.14 71.37 71.04 69.92 70.49 70.56 71.40 70.38 69.86 67.47 67.06 66.75 66.69 67.20 68.07 68.38 68.42 67.70 67.63 67.90
76.88 75.36 75.76 75.55 75.27 74.97 74.50 73.96 72.93 72.53 72.08 72.01 71.59 71.14 71.26 72.31 71.59 72.06 71.27 70.28 70.22 70.13 68.93 66.98 70.11 70.17 69.80 70.36 70.64 69.85 69.61 69.43 68.01 66.06 65.51 65.44 65.27 65.29 65.42 65.14 64.89 64.56 64.34
75.34 75.25 75.47 74.79 74.74 74.96 74.13 73.60 73.05 73.26 73.31 72.38 72.27 71.74 70.90 71.42 71.10 70.41 70.95 70.44 70.45 70.75 70.90 69.32 68.64 70.53 69.76 69.22 66.68 67.13 66.50 66.70 66.29 66.31 65.48 65.05 64.77 64.67 64.07 63.25 62.04 60.87 60.34
73.62 74.48 74.56 74.96 74.64 74.63 74.95 73.24 73.23 73.13 73.36 73.23 73.02 72.06 71.17 70.87 71.17 70.27 70.68 70.20 70.28 69.62 69.69 69.16 69.04 69.16 68.82 68.37 66.04 63.48 62.32 64.45 64.45 66.00 65.93 65.79 65.37 64.96 64.16 62.70 62.05 60.91 58.75
73.37 74.00 73.81 74.66 74.67 74.64 73.44 73.88 73.40 73.01 72.84 72.16 72.60 72.48 70.94 71.53 71.97 71.61 71.09 70.49 70.23 69.90 69.02 68.05 67.98 67.74 67.22 66.19 65.35 65.06 63.70 63.28 63.16 64.87 64.50 64.74 64.82 64.39 63.48 63.57 63.83 62.73 60.14
73.44 73.79 73.96 73.56 73.47 73.08 67.74 68.08 72.26 72.87 72.94 73.14 72.62 72.80 72.78 70.53 69.76 67.59 68.03 67.90 70.51 69.67 68.64 68.05 67.47 66.53 66.60 66.89 66.93 65.55 63.34 60.35 59.06 63.44 63.51 64.02 66.07 65.50 64.95 64.63 63.82 62.01 60.02
74.37 73.41 72.94 72.28 72.65 73.58 64.90 63.95 67.24 73.34 73.19 72.77 72.80 72.18 71.81 71.32 69.16 70.59 65.79 66.01 65.83 65.65 66.71 68.95 67.38 67.48 66.93 67.87 66.74 64.85 62.25 61.66 61.26 62.55 63.43 63.08 65.76 65.39 66.09 65.32 61.78 60.03 59.69
71.88 70.90 71.03 71.05 73.20 73.37 62.53 61.36 64.05 73.16 73.02 73.13 73.33 73.05 71.96 71.28 72.00 70.70 70.72 68.18 68.21 68.07 66.97 66.81 67.20 69.56 70.21 69.87 68.08 65.06 63.16 63.19 63.76 62.68 63.78 60.92 63.24 62.58 65.63 66.22 61.76 60.25 58.82
68.64 69.61 72.10 74.09 73.36 71.89 60.90 59.36 63.50 72.03 72.14 72.17 72.82 72.80 72.39 71.35 67.39 63.43 70.15 69.52 69.33 69.09 63.62 62.58 61.82 63.74 65.20 66.28 67.60 65.83 62.92 61.17 59.06 61.38 64.79 63.78 62.93 62.79 64.01 65.68 63.54 60.37 57.80
68.64 69.56 69.46 72.26 69.88 72.61 62.50 58.22 61.78 71.01 70.87 71.17 72.54 72.59 65.09 69.55 63.12 59.28 68.64 69.75 68.40 69.02 68.80 66.02 64.80 63.23 64.23 65.63 63.08 66.65 63.98 61.28 60.19 58.68 62.40 63.13 63.10 62.95 61.37 64.64 65.09 61.82 60.12
MSLP
1014.40 1014.43 1014.49 1014.56 1015.10 1015.19 1015.43 1015.55 1015.65 1015.73 1015.64 1015.56 1015.60 1015.52 1015.56 1015.44 1015.58 1016.10 1016.62 1016.58 1016.94 1017.04 1017.45 1017.92 1018.26 1018.56 1018.90 1019.14 1019.32 1019.48 1019.67 1019.83 1020.04 1020.15 1020.29 1020.35 1020.56 1020.69 1020.81 1020.89 1021.03 1021.18 1021.30
1013.99 1014.21 1014.27 1014.38 1014.60 1014.58 1014.80 1015.00 1015.14 1015.34 1015.28 1015.25 1015.38 1015.38 1015.56 1015.50 1015.45 1015.73 1016.35 1016.57 1016.85 1016.98 1017.31 1017.50 1017.76 1018.09 1018.34 1018.64 1018.89 1019.08 1019.35 1019.55 1019.69 1019.78 1019.96 1020.04 1020.13 1020.32 1020.45 1020.61 1020.65 1020.78 1020.98
1013.55 1013.90 1014.10 1014.22 1014.23 1014.28 1014.25 1014.59 1014.45 1014.59 1015.07 1014.94 1015.19 1015.25 1015.59 1015.68 1015.49 1015.34 1015.47 1016.29 1016.20 1016.55 1016.88 1017.22 1017.46 1017.76 1017.94 1018.00 1018.37 1018.63 1018.98 1019.17 1019.30 1019.45 1019.53 1019.60 1019.61 1019.82 1020.01 1020.09 1020.30 1020.42 1020.53
1013.12 1013.32 1013.76 1013.83 1013.80 1014.06 1014.15 1014.54 1014.63 1014.82 1014.96 1015.26 1015.25 1015.31 1015.63 1015.56 1015.55 1015.46 1015.48 1015.49 1015.83 1015.90 1016.25 1016.74 1016.91 1017.15 1017.48 1017.67 1017.83 1018.02 1018.45 1018.66 1018.87 1019.02 1019.08 1019.12 1019.16 1019.29 1019.47 1019.59 1019.84 1020.09 1020.20
1012.56 1013.02 1013.41 1013.07 1013.01 1013.51 1014.10 1014.66 1014.85 1014.96 1015.13 1015.27 1015.32 1015.25 1015.18 1015.26 1015.21 1015.05 1015.20 1015.22 1015.27 1015.53 1015.70 1015.92 1016.29 1016.64 1016.79 1016.97 1017.19 1017.36 1017.66 1018.04 1018.25 1018.43 1018.45 1018.59 1018.78 1018.78 1018.97 1019.17 1019.34 1019.52 1019.71
1011.85 1012.64 1012.77 1013.04 1013.04 1013.53 1013.99 1014.38 1014.58 1014.83 1015.06 1015.24 1015.07 1014.82 1014.87 1014.88 1014.90 1014.97 1014.86 1014.65 1014.71 1014.89 1015.28 1015.53 1015.87 1016.17 1016.33 1016.51 1016.70 1016.91 1017.14 1017.39 1017.59 1017.80 1017.95 1018.07 1018.22 1018.34 1018.37 1018.53 1018.73 1018.93 1019.18
1011.53 1011.90 1012.49 1012.74 1013.10 1013.66 1013.99 1014.17 1014.49 1014.82 1014.96 1015.07 1015.28 1015.00 1014.86 1014.68 1014.66 1014.67 1014.49 1014.37 1014.35 1014.52 1014.59 1014.67 1015.04 1015.29 1015.53 1015.88 1016.16 1016.33 1016.64 1016.84 1017.02 1017.18 1017.31 1017.38 1017.53 1017.67 1017.74 1017.96 1018.11 1018.38 1018.56
1011.13 1011.49 1011.99 1012.31 1012.80 1013.34 1013.83 1013.92 1014.26 1014.53 1014.67 1014.81 1015.33 1015.47 1015.30 1014.99 1014.53 1014.10 1014.12 1014.02 1013.98 1013.87 1013.99 1014.17 1014.47 1014.76 1014.94 1015.12 1015.51 1015.72 1016.09 1016.29 1016.38 1016.64 1016.75 1016.89 1017.05 1017.07 1017.11 1017.26 1017.47 1017.75 1017.98
1010.72 1011.14 1011.40 1012.12 1012.63 1013.03 1013.23 1013.64 1013.91 1014.21 1014.39 1014.42 1014.72 1015.10 1015.05 1014.78 1013.97 1013.42 1013.55 1013.58 1013.64 1013.78 1013.59 1013.39 1013.67 1013.89 1014.28 1014.61 1014.94 1015.22 1015.56 1015.81 1016.02 1016.27 1016.37 1016.49 1016.59 1016.60 1016.59 1016.67 1016.85 1017.06 1017.28
1010.09 1010.65 1011.07 1011.55 1012.09 1012.62 1012.91 1013.14 1013.51 1013.76 1014.04 1014.17 1014.42 1014.34 1014.39 1014.26 1014.49 1014.11 1013.68 1013.68 1013.37 1014.28 1012.86 1013.10 1013.25 1013.58 1013.74 1013.95 1014.27 1014.78 1015.05 1015.34 1015.83 1016.01 1016.20 1016.30 1016.25 1016.18 1016.20 1016.23 1016.30 1016.43 1016.55
1009.28 1009.82 1010.43 1011.22 1011.60 1011.94 1012.43 1012.70 1012.89 1013.18 1013.38 1013.73 1013.79 1013.92 1014.13 1014.27 1014.43 1014.76 1014.47 1014.33 1014.29 1013.47 1012.92 1012.86 1013.02 1013.14 1013.34 1013.64 1013.97 1014.26 1014.68 1015.17 1015.56 1015.75 1015.94 1016.05 1016.02 1015.90 1015.76 1015.73 1015.71 1015.72 1015.90
1008.77 1009.15 1009.62 1010.41 1011.00 1011.38 1011.55 1012.03 1012.43 1012.67 1012.91 1013.15 1013.48 1013.73 1013.96 1014.12 1014.17 1014.34 1014.62 1014.20 1014.16 1013.95 1013.22 1013.10 1013.00 1013.08 1013.32 1013.53 1013.63 1014.02 1014.57 1015.01 1015.42 1015.62 1015.82 1015.85 1015.70 1015.54 1015.36 1015.21 1015.17 1015.23 1015.36
1007.70 1008.31 1008.84 1009.53 1010.25 1010.65 1011.11 1011.47 1012.05 1012.39 1012.55 1012.70 1012.87 1013.07 1013.27 1013.50 1013.76 1013.98 1014.26 1014.24 1014.11 1013.68 1013.47 1013.07 1012.75 1012.86 1013.13 1013.43 1013.70 1013.98 1014.43 1014.89 1015.10 1015.28 1015.56 1015.52 1015.36 1015.16 1014.92 1014.70 1014.71 1014.77 1014.82
1006.58 1007.28 1007.95 1008.67 1009.39 1010.01 1010.40 1010.81 1011.26 1011.72 1012.08 1012.21 1012.36 1012.39 1012.73 1013.02 1013.32 1013.53 1013.96 1014.36 1014.23 1014.02 1013.49 1013.34 1012.79 1013.00 1013.12 1013.35 1013.43 1013.69 1014.07 1014.64 1014.95 1015.21 1015.35 1015.16 1015.11 1014.96 1014.69 1014.43 1014.46 1014.56 1014.65
1006.24 1007.14 1007.65 1007.93 1008.80 1009.43 1010.00 1010.25 1010.77 1011.22 1011.62 1011.92 1011.88 1011.93 1012.34 1012.66 1012.86 1013.22 1013.65 1014.07 1014.28 1014.20 1013.97 1013.15 1013.08 1012.91 1013.15 1013.39 1013.59 1013.65 1013.85 1014.36 1014.83 1015.18 1015.30 1015.10 1015.04 1014.95 1014.72 1014.51 1014.44 1014.53 1014.74
1006.64 1007.18 1007.62 1007.85 1008.09 1008.76 1009.25 1009.95 1010.60 1010.84 1011.14 1011.54 1011.82 1011.84 1012.04 1012.23 1012.50 1012.96 1013.33 1013.61 1014.00 1014.22 1014.00 1013.15 1012.98 1012.98 1013.05 1013.38 1013.59 1013.61 1013.90 1014.40 1014.78 1015.15 1015.23 1014.95 1014.84 1014.84 1014.81 1014.75 1014.73 1014.69 1014.92
1006.78 1007.10 1007.48 1007.35 1007.71 1008.22 1008.98 1009.30 1009.88 1010.19 1010.72 1011.11 1011.48 1011.56 1011.71 1011.79 1012.07 1012.39 1012.72 1012.98 1013.33 1013.50 1013.31 1012.81 1012.82 1012.90 1013.17 1013.33 1013.59 1013.67 1014.09 1014.32 1014.81 1015.04 1015.10 1014.99 1014.90 1014.84 1014.85 1014.97 1015.04 1015.02 1015.17
1006.56 1007.05 1007.15 1007.41 1007.39 1007.91 1008.37 1008.89 1009.30 1009.53 1010.01 1010.47 1010.82 1011.10 1011.29 1011.34 1011.58 1011.76 1012.04 1012.28 1012.47 1012.57 1012.82 1012.58 1012.62 1012.95 1013.17 1013.39 1013.63 1013.92 1014.28 1014.41 1014.61 1015.13 1015.07 1015.10 1015.11 1015.01 1015.01 1015.14 1015.26 1015.32 1015.48
1006.62 1006.70 1006.66 1007.21 1007.05 1007.48 1007.86 1008.26 1008.59 1009.04 1009.35 1009.68 1009.96 1010.54 1010.90 1010.79 1011.08 1011.54 1011.61 1011.76 1011.97 1012.07 1012.24 1012.42 1012.36 1012.45 1012.79 1013.27 1013.80 1014.22 1014.55 1014.65 1014.78 1014.88 1014.97 1015.09 1015.11 1014.98 1015.18 1015.26 1015.36 1015.51 1015.70
1006.38 1006.38 1006.67 1006.79 1006.66 1006.97 1007.21 1007.66 1008.04 1008.63 1008.97 1009.27 1009.56 1009.83 1010.37 1010.52 1010.52 1010.95 1011.19 1011.29 1011.54 1011.72 1011.85 1011.99 1012.04 1012.22 1012.36 1012.99 1013.42 1014.14 1014.60 1014.68 1014.79 1014.69 1014.78 1014.90 1015.11 1015.14 1015.22 1015.41 1015.62 1015.65 1016.02
1005.70 1005.76 1006.65 1006.51 1006.65 1006.47 1006.58 1007.16 1007.44 1007.80 1008.44 1008.66 1008.70 1009.05 1009.37 1009.67 1009.66 1009.91 1010.40 1010.72 1011.10 1011.28 1011.40 1011.39 1011.69 1011.97 1012.22 1012.64 1012.88 1013.43 1014.10 1014.53 1014.70 1014.72 1014.95 1015.03 1015.20 1015.29 1015.30 1015.45 1015.68 1015.87 1016.06
1003.74 1005.12 1006.05 1006.28 1006.20 1006.03 1005.88 1006.40 1006.61 1006.96 1007.65 1007.97 1007.84 1008.22 1008.79 1009.04 1009.23 1009.32 1009.53 1009.95 1010.33 1010.83 1011.10 1011.12 1011.17 1011.28 1011.56 1011.97 1012.39 1012.85 1013.65 1014.28 1014.61 1014.41 1014.50 1014.66 1014.87 1015.26 1015.38 1015.42 1015.42 1015.91 1016.30
1004.26 1005.19 1005.64 1006.02 1006.01 1005.93 1005.85 1005.83 1006.03 1006.20 1006.63 1007.18 1007.03 1007.27 1007.96 1008.19 1008.70 1008.95 1009.17 1009.48 1009.88 1010.24 1010.51 1010.90 1010.96 1010.90 1010.83 1011.12 1011.83 1012.58 1013.16 1013.58 1013.80 1013.98 1014.24 1014.31 1014.40 1014.66 1014.96 1015.20 1015.51 1015.82 1016.34
1004.37 1004.93 1005.42 1005.78 1005.52 1005.64 1006.08 1006.05 1005.66 1005.81 1006.16 1006.37 1006.68 1006.90 1007.23 1007.69 1007.90 1008.32 1008.66 1009.22 1009.49 1009.65 1009.77 1010.06 1010.37 1010.38 1010.37 1010.64 1011.19 1011.88 1012.76 1013.24 1013.63 1013.75 1013.80 1014.16 1014.40 1014.63 1014.60 1014.98 1015.28 1015.66 1016.14
1004.55 1004.62 1005.07 1005.26 1005.48 1005.69 1005.87 1005.84 1005.80 1005.62 1005.89 1005.91 1005.83 1006.14 1006.47 1007.07 1007.36 1007.77 1008.22 1008.71 1008.91 1009.09 1009.21 1009.43 1009.73 1009.75 1009.83 1009.94 1010.37 1011.48 1012.53 1013.12 1013.54 1013.56 1013.66 1013.77 1014.07 1014.37 1014.67 1014.57 1015.21 1015.35 1015.97
1005.04 1005.03 1004.77 1005.06 1004.85 1005.03 1005.25 1005.83 1005.91 1005.61 1005.48 1005.41 1005.34 1005.47 1005.61 1006.12 1006.70 1007.17 1007.68 1007.78 1008.21 1008.56 1009.07 1009.86 1010.14 1010.07 1010.16 1010.31 1010.45 1010.63 1011.39 1012.17 1012.98 1013.49 1013.39 1013.65 1013.47 1014.04 1014.33 1014.24 1014.57 1015.35 1015.93
Wind_Speed
5 4 4 3 6 7 7 7 8 8 8 6 4 2 3 5 2 5 4 17 16 16 16 15 13 13 12 10 10 10 10 12 9 11 10 9 8 9 7 9 8 8 7
7 7 5 5 5 6 6 6 3 7 6 5 5 3 3 5 5 2 6 7 14 14 14 16 16 14 14 13 13 13 12 12 11 12 10 10 10 9 9 10 10 9 8
8 9 8 8 7 5 4 3 0 3 4 4 4 5 4 6 5 5 0 6 8 15 15 16 15 15 15 15 15 15 14 14 13 12 12 13 12 11 11 12 11 9 10
7 5 6 5 8 5 4 3 3 3 3 3 2 4 6 6 7 6 4 3 6 7 11 15 16 16 16 16 16 15 15 14 13 13 13 14 15 14 14 13 13 12 11
11 7 5 4 5 6 6 5 5 3 3 3 4 4 4 5 5 8 8 7 6 6 4 13 17 17 17 18 17 17 16 14 14 15 16 15 15 15 15 15 14 15 14
11 8 6 6 6 5 4 4 7 4 4 6 6 4 5 4 4 4 5 7 5 4 7 8 7 9 17 18 18 17 16 15 16 15 16 16 16 16 15 15 15 15 15
10 11 7 5 5 4 5 5 4 5 5 5 3 5 5 5 5 5 5 5 6 6 6 6 7 6 7 18 17 17 16 15 15 15 15 15 16 17 17 15 15 16 16
9 8 8 4 6 6 5 4 5 3 3 6 3 3 2 3 7 9 8 5 6 6 8 9 7 8 8 5 10 15 14 14 13 10 9 9 12 16 17 16 15 15 16
10 9 8 8 6 4 5 6 6 7 5 4 8 4 2 4 3 4 11 9 7 6 9 11 9 9 7 6 8 8 13 11 9 8 7 8 9 10 13 14 14 14 15
11 10 9 10 7 6 8 7 7 7 7 6 3 6 6 4 1 4 3 1 2 11 2 4 6 6 7 5 4 8 12 12 9 6 7 9 9 9 9 11 13 14 14
12 13 11 10 10 7 7 7 7 9 6 5 6 2 5 4 5 5 5 2 4 4 4 3 3 3 6 5 5 6 10 10 7 4 5 8 10 11 11 12 13 13 13
10 12 12 10 9 8 7 6 6 6 6 4 4 5 6 3 5 4 5 7 4 5 5 3 4 4 4 4 6 11 12 9 6 2 5 7 9 11 13 14 14 14 14
10 11 10 9 8 9 9 7 6 5 5 5 6 6 5 6 4 3 4 5 4 2 2 3 3 2 2 3 2 9 10 7 5 3 5 6 8 9 11 11 12 11 10
9 13 12 10 8 8 7 7 6 5 5 5 7 6 5 4 5 6 4 5 3 4 1 4 2 2 2 2 5 8 6 9 5 3 3 4 6 7 7 5 8 8 8
8 11 12 11 10 9 10 7 4 5 6 5 4 5 6 5 4 3 4 3 3 1 2 4 2 3 1 2 4 4 4 8 5 2 1 2 3 5 5 3 3 6 6
7 10 12 11 11 7 5 7 5 5 5 4 5 6 5 4 4 5 5 4 4 4 5 4 1 1 2 1 3 2 5 8 6 4 2 2 2 3 3 3 5 8 9
6 9 7 7 8 8 7 6 6 5 7 5 6 6 8 7 5 6 5 6 6 5 7 4 3 3 4 4 4 3 6 5 5 5 4 3 2 2 3 3 4 8 11
5 7 6 6 9 9 10 8 9 6 7 7 6 6 7 6 7 5 6 8 8 8 5 6 3 4 4 5 4 5 4 3 5 4 5 4 3 4 3 3 5 8 11
7 6 6 8 7 7 10 9 7 6 5 6 6 6 7 6 6 5 6 5 6 4 5 4 3 3 3 5 4 4 2 3 3 6 4 4 4 5 4 2 5 9 11
7 7 7 8 9 9 8 11 10 7 6 5 6 6 8 9 7 7 6 6 5 5 5 5 4 3 4 5 4 3 2 1 2 3 2 4 5 4 5 5 7 10 12
9 9 10 8 9 8 8 11 11 10 9 9 8 7 7 7 11 7 5 5 6 5 4 5 4 3 3 4 7 5 4 3 1 2 3 2 2 2 2 6 9 13 13
10 9 9 9 8 7 11 14 13 10 9 9 7 6 6 6 9 12 11 8 5 6 6 4 2 4 8 7 6 6 4 5 3 3 4 4 4 3 3 3 10 11 10
5 7 7 9 9 9 7 14 16 10 9 9 9 8 7 8 11 7 8 7 7 7 6 3 5 6 3 7 7 6 5 5 3 4 4 4 3 5 4 5 11 12 13
4 5 7 8 6 8 12 13 13 7 6 6 7 8 8 8 6 8 8 8 8 8 8 6 7 5 4 5 8 6 6 4 1 4 6 3 3 3 4 4 14 14 14
3 2 5 4 6 12 11 12 9 6 8 9 9 9 9 10 9 10 6 9 9 8 4 9 8 6 3 10 9 8 6 6 2 2 6 3 3 3 3 5 7 15 13
4 4 4 6 9 9 11 14 10 7 10 9 9 10 11 11 12 11 8 7 8 8 7 5 2 2 2 3 9 9 9 8 4 1 4 4 4 4 2 2 7 7 6
Wind_Direction
195 196 199 221 162 192 209 194 196 208 219 223 214 239 195 281 349 145 168 170 173 170 178 192 199 202 204 207 214 222 226 218 224 222 228 233 236 230 232 215 217 223 232
178 202 187 198 211 202 195 210 207 198 189 203 240 175 293 299 302 156 163 170 180 181 189 196 199 201 204 208 214 221 222 227 225 226 227 232 230 230 227 235 230 221 231
192 193 192 197 207 222 225 275 240 207 195 232 219 173 200 260 284 290 220 182 176 188 190 203 203 206 211 209 213 219 223 225 228 228 222 224 228 227 231 226 232 228 229
197 210 206 204 189 192 182 218 221 221 214 229 248 195 193 216 222 250 269 264 197 180 197 212 204 205 212 218 216 220 222 224 226 230 229 225 226 224 223 227 224 227 235
179 205 224 216 187 172 172 194 226 191 266 271 235 232 221 209 205 210 211 237 211 186 191 204 203 213 210 215 220 221 222 224 224 225 232 233 231 229 227 227 226 225 227
171 190 215 239 186 186 200 204 216 207 207 229 259 238 218 212 231 256 245 215 218 210 183 203 195 211 214 221 223 224 227 222 228 229 232 235 234 234 237 230 228 227 227
194 179 206 202 156 187 194 202 220 225 245 203 242 277 266 243 236 245 238 225 201 208 228 187 188 200 207 217 220 225 227 227 233 234 237 237 235 232 236 235 232 230 229
197 204 204 214 194 180 215 205 187 192 237 228 213 236 281 277 243 228 236 230 227 210 222 216 194 202 209 182 212 218 219 231 232 238 247 249 252 248 238 233 235 239 233
190 206 197 210 189 208 191 200 205 206 215 222 193 184 197 229 268 220 216 212 236 235 228 221 207 199 204 169 199 203 215 217 222 234 256 264 268 268 245 235 231 232 236
193 200 209 205 214 206 226 202 205 206 212 221 219 206 238 276 306 321 12 259 301 279 199 164 192 194 178 184 197 225 203 204 200 235 271 280 281 274 260 247 239 236 236
194 194 199 211 211 204 225 224 209 210 202 224 224 202 228 248 254 232 278 255 260 274 260 215 228 206 176 180 196 189 177 170 186 217 268 282 285 279 267 255 246 237 232
189 198 190 190 206 207 195 211 225 232 229 214 230 231 221 207 218 220 241 252 225 237 244 208 216 174 175 193 218 139 153 167 186 233 275 280 285 286 276 266 256 248 240
181 187 183 178 191 199 202 198 211 219 218 218 215 222 218 218 220 225 232 252 253 304 301 327 184 209 182 170 133 153 163 173 175 203 271 291 300 297 283 259 248 247 240
189 170 174 172 182 193 195 192 198 195 208 226 225 230 232 222 211 221 218 233 269 253 303 240 299 153 221 301 150 150 153 171 172 201 262 307 323 327 329 294 231 221 205
143 153 169 166 178 191 201 157 177 221 206 220 225 219 200 209 205 186 162 161 165 142 308 276 229 160 150 110 149 158 104 151 145 174 249 7 352 354 14 36 136 157 152
136 165 175 180 175 174 178 156 191 207 210 218 229 200 197 235 166 192 198 175 190 192 245 216 199 203 149 215 143 129 111 134 138 153 144 103 65 30 37 63 96 112 115
142 168 177 166 165 165 177 171 205 239 182 205 251 210 205 208 201 200 203 205 216 214 239 264 194 182 190 198 179 161 153 157 137 143 136 103 95 76 64 90 122 127 127
166 178 181 198 181 174 179 189 190 217 189 197 220 257 234 215 209 201 197 213 211 219 220 241 180 184 188 191 196 140 88 50 112 129 106 86 72 61 61 122 141 137 130
179 197 190 198 201 194 179 191 185 205 209 200 201 224 256 253 205 213 220 232 224 217 211 220 233 178 166 134 87 81 111 107 118 139 126 130 112 93 73 150 150 128 134
214 201 215 217 195 218 186 185 183 198 211 221 214 220 236 235 231 211 220 223 208 218 223 223 217 199 182 150 138 145 170 171 159 186 123 184 162 143 149 156 161 148 144
214 202 218 209 221 212 213 178 189 193 206 206 212 209 230 238 206 195 192 222 227 222 234 222 204 181 176 168 184 167 182 152 136 163 170 180 150 161 145 151 161 163 154
179 199 209 213 226 226 235 184 185 188 207 211 200 187 229 206 185 187 196 183 199 211 239 246 241 221 210 199 187 175 141 181 194 208 165 184 173 181 167 161 162 160 150
167 201 220 220 221 229 224 191 186 196 200 204 203 186 216 227 209 200 206 195 197 213 209 260 259 263 269 180 171 164 170 180 193 163 168 175 178 174 178 160 159 156 159
210 203 232 238 231 232 208 207 185 197 217 221 217 204 209 236 217 219 178 196 214 210 209 212 218 254 235 175 166 171 179 165 127 157 189 184 156 199 170 175 173 174 174
268 260 204 250 253 255 224 217 194 195 220 226 224 218 207 224 212 201 205 198 213 221 197 151 123 98 104 146 151 138 164 163 149 178 194 169 170 157 201 184 191 187 174
222 243 261 256 259 257 224 227 222 215 221 225 225 226 219 209 205 192 208 207 208 215 177 155 144 116 176 166 171 163 156 172 140 180 205 216 146 148 201 189 170 175 175